Open Text Net Profit Margin 2010-2024 | OTEX

Current and historical net profit margin for Open Text (OTEX) from 2010 to 2024. Net profit margin can be defined as net Income as a portion of total sales revenue. Open Text net profit margin for the three months ending March 31, 2024 was .
Open Text Net Profit Margin Historical Data
Date TTM Revenue TTM Net Income Net Margin
2024-03-31 $5.90B $0.17B 2.85%
2023-12-31 $5.70B $0.13B 2.25%
2023-09-30 $5.06B $0.35B 6.88%
2023-06-30 $4.49B $0.15B 3.34%
2023-03-31 $3.90B $0.30B 7.73%
2022-12-31 $3.53B $0.32B 9.00%
2022-09-30 $3.51B $0.15B 4.21%
2022-06-30 $3.49B $0.40B 11.37%
2022-03-31 $3.49B $0.48B 13.66%
2021-12-31 $3.44B $0.49B 14.32%
2021-09-30 $3.42B $0.34B 9.93%
2021-06-30 $3.39B $0.31B 9.15%
2021-03-31 $3.32B $0.16B 4.67%
2020-12-31 $3.30B $0.09B 2.73%
2020-09-30 $3.22B $0.26B 8.14%
2020-06-30 $3.11B $0.23B 7.49%
2020-03-31 $3.03B $0.28B 9.20%
2019-12-31 $2.94B $0.33B 11.11%
2019-09-30 $2.90B $0.32B 11.15%
2019-06-30 $2.87B $0.29B 9.94%
2019-03-31 $2.88B $0.28B 9.57%
2018-12-31 $2.84B $0.26B 9.18%
2018-09-30 $2.84B $0.24B 8.52%
2018-06-30 $2.82B $0.24B 8.63%
2018-03-31 $2.73B $0.23B 8.33%
2017-12-31 $2.63B $0.19B 7.22%
2017-09-30 $2.44B $0.15B 6.15%
2017-06-30 $2.29B $1.03B 44.76%
2017-03-31 $2.11B $1.07B 50.47%
2016-12-31 $1.96B $1.11B 56.79%
2016-09-30 $1.88B $1.16B 61.42%
2016-06-30 $1.83B $0.28B 15.56%
2016-03-31 $1.82B $0.27B 14.64%
2015-12-31 $1.83B $0.23B 12.29%
2015-09-30 $1.83B $0.21B 11.50%
2015-06-30 $1.85B $0.24B 12.68%
2015-03-31 $1.86B $0.25B 13.63%
2014-12-31 $1.86B $0.27B 14.69%
2014-09-30 $1.76B $0.25B 14.42%
2014-06-30 $1.63B $0.22B 13.48%
2014-03-31 $1.48B $0.17B 11.71%
2013-12-31 $1.37B $0.15B 11.14%
2013-09-30 $1.36B $0.16B 11.76%
2013-06-30 $1.36B $0.15B 10.86%
2013-03-31 $1.32B $0.11B 8.62%
2012-12-31 $1.28B $0.12B 9.64%
2012-09-30 $1.25B $0.11B 8.76%
2012-06-30 $1.21B $0.13B 10.36%
2012-03-31 $1.19B $0.15B 12.31%
2011-12-31 $1.16B $0.15B 12.71%
2011-09-30 $1.10B $0.14B 12.42%
2011-06-30 $1.03B $0.12B 12.02%
2011-03-31 $0.99B $0.15B 14.89%
2010-12-31 $0.94B $0.12B 13.23%
2010-09-30 $0.92B $0.11B 11.76%
2010-06-30 $0.91B $0.09B 9.65%
2010-03-31 $0.88B $0.06B 6.29%
2009-12-31 $0.85B $0.06B 7.49%
Sector Industry Market Cap Revenue
Computer and Technology Computer Software $8.282B $4.485B
Open Text Corporation is engaged in development of innovative intranet, extranet and e-Business applications. Since creating one of the first search engines to index the World Wide Web, the company has remained at the forefront of Internet-based technologies. Open Text solutions allow individuals, teams, organizations, and global trading communities to collaborate on projects, share ideas and accelerate innovation to the fastest possible speed. Open Text Corporation is headquartered in Waterloo, Canada.
Stock Name Country Market Cap PE Ratio
Microsoft (MSFT) United States $3173.595B 36.97
Oracle (ORCL) United States $341.061B 27.76
Salesforce (CRM) United States $269.656B 45.08
Adobe (ADBE) United States $216.523B 36.20
Intuit (INTU) United States $185.433B 57.69
Synopsys (SNPS) United States $89.411B 61.91
Cadence Design Systems (CDNS) United States $80.195B 76.35
Dassault Systemes SA (DASTY) France $56.522B 36.72
Autodesk (ADSK) United States $46.362B 45.30
ANSYS (ANSS) United States $28.650B 53.02
MicroStrategy (MSTR) United States $27.388B 0.00
PTC (PTC) United States $21.857B 57.97
SS&C Technologies Holdings (SSNC) United States $15.324B 14.51
Manhattan Associates (MANH) United States $13.875B 73.64
Descartes Systems Group (DSGX) Canada $8.441B 73.89
Trend Micro (TMICY) Japan $6.479B 46.93
Pegasystems (PEGA) United States $5.156B 45.59
CommVault Systems (CVLT) United States $4.801B 78.46
Blackbaud (BLKB) United States $4.089B 35.20
ACI Worldwide (ACIW) United States $3.740B 17.91
Progress Software (PRGS) United States $2.186B 13.90
Verint Systems (VRNT) United States $1.925B 17.94
Sapiens (SPNS) Israel $1.877B 25.59
BlackBerry (BB) Canada $1.676B 0.00
PROS Holdings (PRO) United States $1.466B 0.00
Simulations Plus (SLP) United States $0.993B 73.04
Rand Worldwide (RWWI) United States $0.647B 0.00
Magic Software Enterprises (MGIC) Israel $0.513B 10.88
American Software (AMSWA) United States $0.359B 30.00
Canaan (CAN) China $0.238B 0.00
OptimizeRx (OPRX) United States $0.225B 0.00
Rigetti Computing (RGTI) United States $0.182B 0.00
Icad Inc (ICAD) United States $0.043B 0.00
Neonode (NEON) Sweden $0.037B 0.00
NetSol Technologies (NTWK) United States $0.030B 0.00
Smith Micro Software (SMSI) United States $0.024B 0.00
Hanryu Holdings (HRYU) South Korea $0.022B 0.00
Wetouch Technology (WETH) $0.021B 0.00
GSE Systems (GVP) United States $0.011B 0.00
SAP SE (SAP) Germany $0.000B 49.88